Torna al catalogo

STARLINK-5929

AttivoComunicazioniVLEO
NORAD 55959·PAYLOAD·🇺🇸 United States

Lanciato Mar 17, 2023 da Vandenberg Space Force Base

Loading…

Prossimi Passaggi (prossime 24 ore)

TLE

AggiornatoSource: CelesTrak SupGP

Epoca: Sep 14, 2026, 21:38 UTC

1 55959C 23037AX  26257.90187500 -.00037950  00000+0 -31805-2 0  2571
2 55959  70.0003 147.3703 0002791 267.9736 164.6668 14.98349247    18

Traccia STARLINK-5929 in tempo reale con AllMySat

Download on the App Store